St. Charles, IL

1:32 PM CDT on October 18, 2017 (GMT -0500)
Saint Charles County Smartt

Weather History for KSET - February, 2014

Change the Weather History Date:

Wednesday, February 26, 2014

  Actual Average (KSTL) Record (KSTL)
Temperature  
Mean Temperature 18 °F -  
Max Temperature 26 °F 47 °F 78 °F (1996)
Min Temperature 9 °F 28 °F -3 °F (1934)
Degree Days  
Heating Degree Days 48    
Moisture  
Dew Point 0 °F    
Average Humidity 46    
Maximum Humidity 62    
Minimum Humidity 30    
Precipitation  
Precipitation 0.00 in - - ()
Sea Level Pressure  
Sea Level Pressure 30.21 in    
Wind  
Wind Speed 14 mph (WNW)    
Max Wind Speed 20 mph    
Max Gust Speed 23 mph    
Visibility 10 miles    
Events      
Averages and records for this station are not official NWS values.
T = Trace of Precipitation, MM = Missing Value Source: NWS Daily Summary

Daily Weather History Graph

Daily Weather History Graph

Search for Another Location

Airport or City:

Trip Planner

Search our weather history database for the weather conditions in past years. The results will help you decide how hot, cold, wet, or windy it might be!

Date:

Astronomy

Feb. 26, 2014 Rise Set
Actual Time 6:38 AM CST 5:51 PM CST
Civil Twilight 6:11 AM CST 6:18 PM CST
Nautical Twilight 5:40 AM CST 6:49 PM CST
Astronomical Twilight 5:09 AM CST 7:20 PM CST
Moon 4:23 AM CST (2/26) 3:07 PM CST (2/26)
Length of Visible Light 12h 06m
Length of Day
11h 12m
Waning Crescent, 10% of the Moon is Illuminated
Feb 26
Waning Crescent
Mar 1
New
Mar 8
First Quarter
Mar 16
Full
Mar 23
Last Quarter

Hourly Weather History & Observations

Time (CST) Temp. Windchill Dew Point Humidity Pressure Visibility Wind Dir Wind Speed Gust Speed Precip Events Conditions
12:54 AM 17.1 °F 1.0 °F 3.0 °F 54% 30.38 in 10.0 mi NNW 18.4 mph - N/A   Mostly Cloudy
1:54 AM 16.0 °F -0.9 °F 1.9 °F 54% 30.38 in 10.0 mi NW 19.6 mph 23.0 mph N/A   Mostly Cloudy
2:54 AM 15.1 °F -0.6 °F 3.0 °F 59% 30.36 in 10.0 mi NNW 16.1 mph - N/A   Clear
3:54 AM 14.0 °F -2.0 °F 1.0 °F 56% 30.36 in 10.0 mi NNW 16.1 mph - N/A   Partly Cloudy
4:54 AM 12.9 °F -0.9 °F 1.9 °F 62% 30.37 in 10.0 mi NW 11.5 mph - N/A   Overcast
5:54 AM 10.9 °F -4.1 °F -2.0 °F 56% 30.38 in 10.0 mi NW 12.7 mph - N/A   Partly Cloudy
6:54 AM 9.0 °F -5.9 °F -4.0 °F 56% 30.37 in 10.0 mi NW 11.5 mph - N/A   Clear
7:54 AM 9.0 °F -6.6 °F -8.0 °F 46% 30.38 in 10.0 mi NW 12.7 mph - N/A   Clear
8:54 AM 10.9 °F -2.6 °F -9.0 °F 40% 30.38 in 10.0 mi NNW 10.4 mph - N/A   Clear
9:54 AM 12.9 °F -0.2 °F -6.0 °F 43% 30.36 in 10.0 mi NW 10.4 mph - N/A   Clear
10:54 AM 14.0 °F 3.9 °F -4.0 °F 45% 30.33 in 10.0 mi WNW 6.9 mph - N/A   Clear
11:54 AM 17.1 °F 6.6 °F -2.9 °F 41% 30.28 in 10.0 mi West 8.1 mph - N/A   Clear
12:54 PM 19.0 °F 7.5 °F -2.9 °F 38% 30.23 in 10.0 mi West 10.4 mph 17.3 mph N/A   Clear
1:54 PM 21.0 °F 10.6 °F -2.9 °F 35% 30.18 in 10.0 mi West 9.2 mph 18.4 mph N/A   Clear
2:54 PM 24.1 °F 12.5 °F -0.9 °F 34% 30.14 in 10.0 mi West 12.7 mph 18.4 mph N/A   Clear
3:54 PM 25.0 °F 12.6 °F -2.9 °F 30% 30.10 in 10.0 mi West 15.0 mph - N/A   Clear
4:54 PM 26.1 °F 15.0 °F -0.0 °F 32% 30.06 in 10.0 mi WSW 12.7 mph - N/A   Clear
5:54 PM 25.0 °F 14.2 °F 1.0 °F 36% 30.03 in 10.0 mi WSW 11.5 mph - N/A   Clear
6:54 PM 24.1 °F 13.7 °F 3.0 °F 40% 30.02 in 10.0 mi WSW 10.4 mph - N/A   Clear
7:54 PM 23.0 °F 12.4 °F 3.9 °F 44% 30.00 in 10.0 mi WSW 10.4 mph - N/A   Clear
8:54 PM 23.0 °F 13.1 °F 6.1 °F 48% 30.00 in 10.0 mi WSW 9.2 mph - N/A   Clear
9:54 PM 23.0 °F 11.7 °F 6.1 °F 48% 29.99 in 10.0 mi WSW 11.5 mph - N/A   Clear
10:54 PM 21.9 °F 11.7 °F 7.0 °F 53% 29.98 in 10.0 mi WSW 9.2 mph - N/A   Clear
11:54 PM 21.9 °F 12.5 °F 9.0 °F 58% 29.96 in 10.0 mi SW 8.1 mph - N/A   Clear